DL9BGG-13 Weather Reports


time (UTC)temp
C
wind
direction
speed
KPH
gust
KPH
rain 1hr
cm
rain 24hr
cm
rain mn
cm
humidity
%
barometer
mb
20260506002409 10 45 4.8 0.0 0.00 0.00 0.00 89 1055.2
20260506002306 10 45 14.5 0.0 0.00 0.00 0.00 88 1055.2
20260506002155 10 45 11.3 0.0 0.00 0.00 0.00 88 1055.2
20260506002043 10 22 8.0 0.0 0.00 0.00 0.00 88 1055.2
20260506001936 10 22 9.7 0.0 0.00 0.00 0.00 88 1055.2
20260506001817 10 22 8.0 0.0 0.00 0.00 0.00 88 1055.2
20260506001655 10 22 12.9 0.0 0.00 0.00 0.00 88 1055.2
20260506001435 10 67 14.5 0.0 0.00 0.00 0.00 88 1055.2
20260506001329 10 22 6.4 0.0 0.00 0.00 0.00 88 1055.2
20260506001218 10 45 12.9 0.0 0.00 0.00 0.00 88 1055.2
20260506001112 10 22 9.7 0.0 0.00 0.00 0.00 88 1055.3
20260506000951 10 0 9.7 0.0 0.00 0.00 0.00 88 1055.4
20260506000836 10 22 16.1 0.0 0.00 0.00 0.00 88 1055.3
20260506000717 10 45 17.7 0.0 0.00 0.00 0.00 88 1055.3
20260506000610 10 45 17.7 0.0 0.00 0.00 0.00 88 1055.3
20260506000458 10 67 16.1 0.0 0.00 0.00 0.00 88 1055.2
20260506000350 10 45 16.1 0.0 0.00 0.00 0.00 88 1055.3
20260506000235 10 22 0.0 0.0 0.00 0.00 0.00 88 1055.4
20260506000115 10 67 0.0 0.0 0.00 0.00 0.00 88 1055.2
20260506000009 10 45 8.0 0.0 0.00 0.00 0.00 88 1055.2
20260505235855 10 67 11.3 0.0 0.00 0.00 0.00 87 1055.2
20260505235742 10 22 9.7 0.0 0.00 0.00 0.00 87 1055.2
20260505235629 10 22 16.1 0.0 0.00 0.00 0.00 87 1055.2
20260505235524 10 22 6.4 0.0 0.00 0.00 0.00 87 1055.2
20260505235413 10 45 11.3 0.0 0.00 0.00 0.00 87 1055.2
20260505235306 10 45 8.0 0.0 0.00 0.00 0.00 87 1055.2
20260505235153 10 45 17.7 0.0 0.00 0.00 0.00 87 1055.4
20260505235039 10 22 4.8 0.0 0.00 0.00 0.00 86 1055.3
20260505234926 10 45 17.7 0.0 0.00 0.00 0.00 86 1055.3
20260505234813 10 90 8.0 0.0 0.00 0.00 0.00 86 1055.3
20260505234700 10 45 12.9 0.0 0.00 0.00 0.00 86 1055.3
20260505234548 10 45 4.8 0.0 0.00 0.00 0.00 86 1055.4
20260505234434 10 22 4.8 0.0 0.00 0.00 0.00 86 1055.3
20260505234313 10 67 8.0 0.0 0.00 0.00 0.00 86 1055.4
20260505234200 10 45 4.8 0.0 0.00 0.00 0.00 86 1055.4
20260505234046 10 22 17.7 0.0 0.00 0.00 0.00 86 1055.4
20260505233936 10 22 8.0 0.0 0.00 0.00 0.00 86 1055.4
20260505233828 10 0 9.7 0.0 0.00 0.00 0.00 85 1055.4
20260505233707 10 45 9.7 0.0 0.00 0.00 0.00 85 1055.4
20260505233603 10 22 14.5 0.0 0.00 0.00 0.00 85 1055.4
20260505233457 10 22 9.7 0.0 0.00 0.00 0.00 85 1055.3
20260505233346 10 45 8.0 0.0 0.00 0.00 0.00 85 1055.4
20260505233239 10 45 0.0 0.0 0.00 0.00 0.00 85 1055.3
20260505233136 10 45 14.5 0.0 0.00 0.00 0.00 85 1055.3
20260505233028 10 45 9.7 0.0 0.00 0.00 0.00 85 1055.3
20260505232908 10 45 19.3 0.0 0.00 0.00 0.00 84 1055.4
20260505232756 10 45 6.4 0.0 0.00 0.00 0.00 84 1055.4
20260505232649 10 45 14.5 0.0 0.00 0.00 0.00 84 1055.4
20260505232543 10 45 27.4 0.0 0.00 0.00 0.00 84 1055.4
20260505232438 10 22 9.7 0.0 0.00 0.00 0.00 83 1055.4
20260505232331 10 45 6.4 0.0 0.00 0.00 0.00 83 1055.4
20260505232226 10 22 11.3 0.0 0.00 0.00 0.00 83 1055.4
20260505232120 10 22 11.3 0.0 0.00 0.00 0.00 83 1055.3
20260505231959 10 0 8.0 0.0 0.00 0.00 0.00 83 1055.4
20260505231839 10 67 3.2 0.0 0.00 0.00 0.00 83 1055.4
20260505231733 10 45 6.4 0.0 0.00 0.00 0.00 83 1055.4
20260505231612 10 45 8.0 0.0 0.00 0.00 0.00 82 1055.4
20260505231459 10 22 9.7 0.0 0.00 0.00 0.00 82 1055.4
20260505231346 10 45 9.7 0.0 0.00 0.00 0.00 82 1055.4
20260505231240 10 45 6.4 0.0 0.00 0.00 0.00 82 1055.4
20260505231135 10 0 8.0 0.0 0.00 0.00 0.00 82 1055.4
20260505231029 10 45 14.5 0.0 0.00 0.00 0.00 82 1055.5
20260505230924 10 45 17.7 0.0 0.00 0.00 0.00 82 1055.4
20260505230818 10 22 6.4 0.0 0.00 0.00 0.00 82 1055.5
20260505230705 10 45 3.2 0.0 0.00 0.00 0.00 82 1055.6
20260505230544 10 90 19.3 0.0 0.00 0.00 0.00 82 1055.5
20260505230431 10 22 9.7 0.0 0.00 0.00 0.00 82 1055.5
20260505230317 10 22 9.7 0.0 0.00 0.00 0.00 82 1055.5
20260505230204 10 0 14.5 0.0 0.00 0.00 0.00 82 1055.5
20260505230052 10 22 8.0 0.0 0.00 0.00 0.00 82 1055.6
20260505225946 10 45 0.0 0.0 0.00 0.00 0.00 82 1055.5
20260505225833 10 45 11.3 0.0 0.00 0.00 0.00 82 1055.6
20260505225727 10 0 11.3 0.0 0.00 0.00 0.00 82 1055.6
20260505225622 10 0 9.7 0.0 0.00 0.00 0.00 82 1055.6
20260505225516 10 22 9.7 0.0 0.00 0.00 0.00 82 1055.6
20260505225410 10 22 4.8 0.0 0.00 0.00 0.00 82 1055.6
20260505225250 10 45 19.3 0.0 0.00 0.00 0.00 82 1055.6
20260505225143 10 45 9.7 0.0 0.00 0.00 0.00 82 1055.6
20260505225030 10 45 8.0 0.0 0.00 0.00 0.00 82 1055.6
20260505224924 10 67 0.0 0.0 0.00 0.00 0.00 83 1055.6
20260505224810 10 45 9.7 0.0 0.00 0.00 0.00 83 1055.7
20260505224705 10 22 9.7 0.0 0.00 0.00 0.00 83 1055.6
20260505224559 10 67 16.1 0.0 0.00 0.00 0.00 83 1055.7
20260505224453 10 22 12.9 0.0 0.00 0.00 0.00 83 1055.7
20260505224333 10 67 16.1 0.0 0.00 0.00 0.00 83 1055.7
20260505224226 10 90 12.9 0.0 0.00 0.00 0.00 83 1055.7
20260505224112 10 22 4.8 0.0 0.00 0.00 0.00 83 1055.7
20260505223958 10 45 9.7 0.0 0.00 0.00 0.00 83 1055.8
20260505223853 10 45 6.4 0.0 0.00 0.00 0.00 83 1055.7
20260505223746 10 45 8.0 0.0 0.00 0.00 0.00 83 1055.8
20260505223641 10 45 9.7 0.0 0.00 0.00 0.00 83 1055.8
20260505223534 10 45 12.9 0.0 0.00 0.00 0.00 83 1055.7
20260505223428 10 67 9.7 0.0 0.00 0.00 0.00 83 1055.7
20260505223314 10 22 3.2 0.0 0.00 0.00 0.00 83 1055.8
20260505223200 10 22 14.5 0.0 0.00 0.00 0.00 83 1055.7
20260505223038 10 45 8.0 0.0 0.00 0.00 0.00 84 1055.8
20260505222923 10 45 6.4 0.0 0.00 0.00 0.00 84 1055.8
20260505222801 10 67 11.3 0.0 0.00 0.00 0.00 84 1055.7
20260505222657 10 0 9.7 0.0 0.00 0.00 0.00 84 1055.8
20260505222548 10 45 9.7 0.0 0.00 0.00 0.00 84 1055.7
20260505222435 10 45 6.4 0.0 0.00 0.00 0.00 84 1055.7
20260505222328 10 45 8.0 0.0 0.00 0.00 0.00 84 1055.7
20260505222223 10 45 4.8 0.0 0.00 0.00 0.00 84 1055.7
20260505222116 10 22 9.7 0.0 0.00 0.00 0.00 84 1055.7
20260505222011 10 0 9.7 0.0 0.00 0.00 0.00 84 1055.7
20260505221904 10 22 8.0 0.0 0.00 0.00 0.00 84 1055.8
20260505221759 10 90 8.0 0.0 0.00 0.00 0.00 84 1055.7
20260505221654 10 90 14.5 0.0 0.00 0.00 0.00 84 1055.8
20260505221548 10 45 3.2 0.0 0.00 0.00 0.00 84 1055.8
20260505221435 10 45 6.4 0.0 0.00 0.00 0.00 84 1055.7
20260505221323 10 45 14.5 0.0 0.00 0.00 0.00 84 1055.7
20260505221219 10 45 9.7 0.0 0.00 0.00 0.00 85 1055.7
20260505221104 10 45 20.9 0.0 0.00 0.00 0.00 85 1055.7
20260505220951 10 45 29.0 0.0 0.00 0.00 0.00 85 1055.7
20260505220838 10 112 9.7 0.0 0.00 0.00 0.00 85 1055.7
20260505220716 10 22 9.7 0.0 0.00 0.00 0.00 85 1055.7
20260505220605 10 337 9.7 0.0 0.00 0.00 0.00 85 1055.7
20260505220458 10 22 9.7 0.0 0.00 0.00 0.00 85 1055.8
20260505220329 10 22 14.5 0.0 0.00 0.00 0.00 85 1055.8
20260505220216 10 22 9.7 0.0 0.00 0.00 0.00 85 1055.8
20260505220110 10 22 9.7 0.0 0.00 0.00 0.00 85 1055.8
20260505215941 10 67 17.7 0.0 0.00 0.00 0.00 85 1055.8
20260505215828 10 67 12.9 0.0 0.00 0.00 0.00 85 1055.8
20260505215723 10 45 8.0 0.0 0.00 0.00 0.00 85 1055.8
20260505215554 10 45 6.4 0.0 0.00 0.00 0.00 85 1055.8
20260505215441 10 45 6.4 0.0 0.00 0.00 0.00 85 1055.9
20260505215336 10 22 9.7 0.0 0.00 0.00 0.00 85 1055.9
20260505215224 10 0 20.9 0.0 0.00 0.00 0.00 85 1055.9
20260505215119 10 67 8.0 0.0 0.00 0.00 0.00 85 1055.8
20260505215013 10 22 11.3 0.0 0.00 0.00 0.00 85 1055.9
20260505214909 10 22 4.8 0.0 0.00 0.00 0.00 85 1055.9
20260505214803 10 45 8.0 0.0 0.00 0.00 0.00 85 1055.9
20260505214657 10 22 0.0 0.0 0.00 0.00 0.00 85 1056.0
20260505214545 10 22 14.5 0.0 0.00 0.00 0.00 85 1055.9
20260505214434 10 22 9.7 0.0 0.00 0.00 0.00 84 1056.0
20260505214326 10 45 6.4 0.0 0.00 0.00 0.00 84 1056.0
20260505214001 10 45 8.0 0.0 0.00 0.00 0.00 84 1056.0
20260505213851 10 45 3.2 0.0 0.00 0.00 0.00 84 1055.9
20260505213635 10 22 9.7 0.0 0.00 0.00 0.00 84 1056.0
20260505213521 10 45 12.9 0.0 0.00 0.00 0.00 84 1056.0
20260505213408 10 45 9.7 0.0 0.00 0.00 0.00 84 1056.0
20260505213254 10 67 16.1 0.0 0.00 0.00 0.00 84 1056.0
20260505213141 10 45 6.4 0.0 0.00 0.00 0.00 85 1056.0
20260505213027 10 45 9.7 0.0 0.00 0.00 0.00 85 1056.0
20260505212907 10 67 8.0 0.0 0.00 0.00 0.00 85 1056.1
20260505212754 10 67 8.0 0.0 0.00 0.00 0.00 85 1056.0
20260505212641 10 45 4.8 0.0 0.00 0.00 0.00 85 1056.0
20260505212528 10 22 16.1 0.0 0.00 0.00 0.00 85 1056.0
20260505212414 10 337 6.4 0.0 0.00 0.00 0.00 85 1056.0
20260505212305 10 45 8.0 0.0 0.00 0.00 0.00 85 1056.0
20260505212148 10 45 4.8 0.0 0.00 0.00 0.00 85 1056.0
20260505212036 10 22 4.8 0.0 0.00 0.00 0.00 85 1056.0
20260505211923 10 22 0.0 0.0 0.00 0.00 0.00 85 1056.0
20260505211817 10 45 8.0 0.0 0.00 0.00 0.00 85 1056.0
20260505211712 10 67 4.8 0.0 0.00 0.00 0.00 84 1056.0
20260505211601 10 45 12.9 0.0 0.00 0.00 0.00 84 1056.1
20260505211454 10 45 11.3 0.0 0.00 0.00 0.00 84 1056.1
20260505211333 10 45 14.5 0.0 0.00 0.00 0.00 84 1056.0
20260505211220 10 22 3.2 0.0 0.00 0.00 0.00 84 1056.1
20260505211114 10 22 14.5 0.0 0.00 0.00 0.00 85 1056.1
20260505210953 10 45 8.0 0.0 0.00 0.00 0.00 85 1056.1
20260505210840 10 45 19.3 0.0 0.00 0.00 0.00 85 1056.1
20260505210728 10 0 6.4 0.0 0.00 0.00 0.00 85 1056.1
20260505210622 10 45 8.0 0.0 0.00 0.00 0.00 85 1056.0
20260505210508 10 22 16.1 0.0 0.00 0.00 0.00 85 1056.1
20260505210348 10 45 9.7 0.0 0.00 0.00 0.00 85 1056.1
20260505210235 10 45 16.1 0.0 0.00 0.00 0.00 85 1056.1
20260505210129 10 22 9.7 0.0 0.00 0.00 0.00 85 1056.0
20260505210008 10 22 8.0 0.0 0.00 0.00 0.00 85 1056.0
20260505205847 10 0 4.8 0.0 0.00 0.00 0.00 85 1056.1
20260505205729 10 67 0.0 0.0 0.00 0.00 0.00 85 1056.1
20260505205622 10 22 4.8 0.0 0.00 0.00 0.00 85 1056.1
20260505205509 10 67 19.3 0.0 0.00 0.00 0.00 85 1056.1
20260505205403 10 45 8.0 0.0 0.00 0.00 0.00 85 1056.1
20260505205250 10 45 11.3 0.0 0.00 0.00 0.00 85 1056.1
20260505205144 10 45 11.3 0.0 0.00 0.00 0.00 85 1056.1
20260505205024 10 22 3.2 0.0 0.00 0.00 0.00 85 1056.1
20260505204911 10 45 20.9 0.0 0.00 0.00 0.00 85 1056.0
20260505204806 10 22 11.3 0.0 0.00 0.00 0.00 85 1056.1
20260505204653 10 45 20.9 0.0 0.00 0.00 0.00 85 1056.0
20260505204548 10 22 9.7 0.0 0.00 0.00 0.00 85 1056.0
20260505204442 10 45 8.0 0.0 0.00 0.00 0.00 85 1056.1
20260505204329 10 22 11.3 0.0 0.00 0.00 0.00 85 1056.0
20260505204217 10 90 11.3 0.0 0.00 0.00 0.00 85 1056.0
20260505204102 10 0 9.7 0.0 0.00 0.00 0.00 85 1055.9
20260505203950 10 22 11.3 0.0 0.00 0.00 0.00 85 1056.1
20260505203837 10 22 16.1 0.0 0.00 0.00 0.00 85 1056.0
20260505203732 10 0 6.4 0.0 0.00 0.00 0.00 85 1056.1
20260505203618 10 22 8.0 0.0 0.00 0.00 0.00 85 1056.1
20260505203458 10 0 8.0 0.0 0.00 0.00 0.00 85 1056.0
20260505203352 10 45 17.7 0.0 0.00 0.00 0.00 85 1056.0
20260505203241 10 0 17.7 0.0 0.00 0.00 0.00 85 1056.1
20260505203126 10 67 8.0 0.0 0.00 0.00 0.00 85 1056.1
20260505203015 10 45 19.3 0.0 0.00 0.00 0.00 85 1056.1
20260505202908 10 45 8.0 0.0 0.00 0.00 0.00 85 1056.2
20260505202803 10 0 0.0 0.0 0.00 0.00 0.00 84 1056.1
20260505202642 10 45 9.7 0.0 0.00 0.00 0.00 84 1056.1
20260505202537 10 0 12.9 0.0 0.00 0.00 0.00 84 1056.2
20260505202434 10 45 16.1 0.0 0.00 0.00 0.00 84 1056.2
20260505202318 10 22 6.4 0.0 0.00 0.00 0.00 84 1056.2
20260505202205 10 22 8.0 0.0 0.00 0.00 0.00 84 1056.1
20260505202058 10 22 19.3 0.0 0.00 0.00 0.00 84 1056.2
20260505201951 10 67 24.1 0.0 0.00 0.00 0.00 84 1056.2
20260505201839 10 22 16.1 0.0 0.00 0.00 0.00 84 1056.2
20260505201732 10 45 6.4 0.0 0.00 0.00 0.00 84 1056.2
20260505201612 10 67 3.2 0.0 0.00 0.00 0.00 84 1056.3
20260505201506 10 0 4.8 0.0 0.00 0.00 0.00 84 1056.3
20260505201352 10 22 6.4 0.0 0.00 0.00 0.00 85 1056.2
20260505201127 10 22 8.0 0.0 0.00 0.00 0.00 85 1056.2
20260505201014 10 45 16.1 0.0 0.00 0.00 0.00 84 1056.2
20260505200902 10 22 8.0 0.0 0.00 0.00 0.00 84 1056.2
20260505200754 10 22 6.4 0.0 0.00 0.00 0.00 84 1056.2
20260505200640 10 22 4.8 0.0 0.00 0.00 0.00 84 1056.2
20260505200534 10 67 11.3 0.0 0.00 0.00 0.00 84 1056.2
20260505200428 10 112 17.7 0.0 0.00 0.00 0.00 84 1056.2
20260505200322 10 22 8.0 0.0 0.00 0.00 0.00 84 1056.2
20260505200216 10 0 12.9 0.0 0.00 0.00 0.00 83 1056.2
20260505200109 10 67 14.5 0.0 0.00 0.00 0.00 83 1056.1
20260505200003 10 45 9.7 0.0 0.00 0.00 0.00 83 1056.2
20260505195849 10 22 9.7 0.0 0.00 0.00 0.00 83 1056.2
20260505195735 10 45 3.2 0.0 0.00 0.00 0.00 83 1056.1
20260505195621 10 45 12.9 0.0 0.00 0.00 0.00 83 1056.2
20260505195506 10 0 12.9 0.0 0.00 0.00 0.00 83 1056.2
20260505195347 10 67 6.4 0.0 0.00 0.00 0.00 83 1056.2
20260505195238 10 0 6.4 0.0 0.00 0.00 0.00 83 1056.3
20260505195118 10 45 9.7 0.0 0.00 0.00 0.00 83 1056.3
20260505195012 10 337 4.8 0.0 0.00 0.00 0.00 82 1056.2
20260505194802 10 22 3.2 0.0 0.00 0.00 0.00 82 1056.3
20260505194652 10 67 9.7 0.0 0.00 0.00 0.00 82 1056.3
20260505194546 10 67 9.7 0.0 0.00 0.00 0.00 82 1056.3
20260505194440 10 22 8.0 0.0 0.00 0.00 0.00 82 1056.3
20260505194327 10 45 22.5 0.0 0.00 0.00 0.00 82 1056.3
20260505194221 10 45 19.3 0.0 0.00 0.00 0.00 82 1056.2
20260505194107 10 22 6.4 0.0 0.00 0.00 0.00 82 1056.3
20260505193954 10 45 11.3 0.0 0.00 0.00 0.00 82 1056.2
20260505193850 10 45 16.1 0.0 0.00 0.00 0.00 82 1056.3
20260505193744 10 45 12.9 0.0 0.00 0.00 0.00 82 1056.3
20260505193623 10 22 9.7 0.0 0.00 0.00 0.00 82 1056.3
20260505193502 10 0 14.5 0.0 0.00 0.00 0.00 82 1056.3
20260505193333 10 45 17.7 0.0 0.00 0.00 0.00 82 1056.2
20260505193220 10 22 11.3 0.0 0.00 0.00 0.00 82 1056.3
20260505193106 10 45 9.7 0.0 0.00 0.00 0.00 82 1056.2
20260505192945 10 22 6.4 0.0 0.00 0.00 0.00 82 1056.2
20260505192830 10 22 9.7 0.0 0.00 0.00 0.00 82 1056.2
20260505192705 10 22 16.1 0.0 0.00 0.00 0.00 82 1056.2
20260505192557 10 337 9.7 0.0 0.00 0.00 0.00 82 1056.2
20260505192443 10 45 16.1 0.0 0.00 0.00 0.00 82 1056.2
20260505192336 10 45 11.3 0.0 0.00 0.00 0.00 82 1056.2
20260505192159 10 45 22.5 0.0 0.00 0.00 0.00 81 1056.2
20260505192054 10 22 11.3 0.0 0.00 0.00 0.00 81 1056.2
20260505191947 10 0 14.5 0.0 0.00 0.00 0.00 81 1056.2
20260505191820 10 22 12.9 0.0 0.00 0.00 0.00 81 1056.1
20260505191713 10 22 20.9 0.0 0.00 0.00 0.00 81 1056.3
20260505191559 10 337 11.3 0.0 0.00 0.00 0.00 80 1056.2
20260505191452 10 22 6.4 0.0 0.00 0.00 0.00 80 1056.2
20260505191326 10 22 11.3 0.0 0.00 0.00 0.00 81 1056.2
20260505191220 10 337 9.7 0.0 0.00 0.00 0.00 81 1056.2
20260505191113 10 22 16.1 0.0 0.00 0.00 0.00 81 1056.2
20260505190959 10 22 16.1 0.0 0.00 0.00 0.00 81 1056.2
20260505190829 10 45 11.3 0.0 0.00 0.00 0.00 81 1056.2
20260505190715 10 0 8.0 0.0 0.00 0.00 0.00 82 1056.2
20260505190608 10 45 12.9 0.0 0.00 0.00 0.00 82 1056.1
20260505190455 10 45 16.1 0.0 0.00 0.00 0.00 82 1056.1
20260505190351 10 45 12.9 0.0 0.00 0.00 0.00 82 1056.2
20260505190245 10 45 9.7 0.0 0.00 0.00 0.00 82 1056.1
20260505190120 10 45 12.9 0.0 0.00 0.00 0.00 82 1056.1
20260505190007 10 45 16.1 0.0 0.00 0.00 0.00 82 1056.1
20260505185854 10 22 9.7 0.0 0.00 0.00 0.00 82 1056.1
20260505185746 10 0 11.3 0.0 0.00 0.00 0.00 82 1056.1
20260505185627 10 45 14.5 0.0 0.00 0.00 0.00 82 1056.1
20260505185519 10 0 11.3 0.0 0.00 0.00 0.00 82 1056.1
20260505185406 10 45 17.7 0.0 0.00 0.00 0.00 82 1056.0
20260505185259 10 45 4.8 0.0 0.00 0.00 0.00 82 1056.1
20260505185130 10 0 9.7 0.0 0.00 0.00 0.00 82 1056.0
20260505185017 10 22 12.9 0.0 0.00 0.00 0.00 82 1056.0
20260505184911 10 0 9.7 0.0 0.00 0.00 0.00 82 1056.1
20260505184806 10 67 19.3 0.0 0.00 0.00 0.00 82 1056.1
20260505184653 10 0 16.1 0.0 0.00 0.00 0.00 83 1056.0
20260505184547 10 45 9.7 0.0 0.00 0.00 0.00 83 1056.0
20260505184441 10 45 22.5 0.0 0.00 0.00 0.00 83 1056.1
20260505184320 10 22 14.5 0.0 0.00 0.00 0.00 83 1056.0
20260505184211 10 22 0.0 0.0 0.00 0.00 0.00 83 1056.1
20260505184057 10 22 3.2 0.0 0.00 0.00 0.00 83 1056.0
20260505183952 10 22 9.7 0.0 0.00 0.00 0.00 83 1056.0
20260505183845 10 22 6.4 0.0 0.00 0.00 0.00 83 1056.0
20260505183730 10 22 8.0 0.0 0.00 0.00 0.00 82 1056.0
20260505183552 10 45 17.7 0.0 0.00 0.00 0.00 82 1055.9
20260505183433 10 45 14.5 0.0 0.00 0.00 0.00 83 1055.9
20260505183324 10 22 9.7 0.0 0.00 0.00 0.00 83 1056.0
20260505183210 10 45 12.9 0.0 0.00 0.00 0.00 83 1055.9
20260505183103 10 22 6.4 0.0 0.00 0.00 0.00 83 1056.0
20260505182936 10 22 0.0 0.0 0.00 0.00 0.00 83 1056.0
20260505182829 10 22 14.5 0.0 0.00 0.00 0.00 83 1055.9
20260505182724 10 22 6.4 0.0 0.00 0.00 0.00 83 1056.0
20260505182615 10 0 4.8 0.0 0.00 0.00 0.00 83 1055.9
20260505182501 10 0 9.7 0.0 0.00 0.00 0.00 83 1056.0
20260505182355 10 22 20.9 0.0 0.00 0.00 0.00 83 1056.0
20260505182250 10 0 12.9 0.0 0.00 0.00 0.00 83 1056.0
20260505182143 10 22 14.5 0.0 0.00 0.00 0.00 83 1055.9
20260505182036 10 45 9.7 0.0 0.00 0.00 0.00 83 1056.0
20260505181922 10 67 14.5 0.0 0.00 0.00 0.00 83 1056.0
20260505181802 10 45 9.7 0.0 0.00 0.00 0.00 83 1056.0
20260505181654 10 45 11.3 0.0 0.00 0.00 0.00 83 1055.9
20260505181539 10 67 22.5 0.0 0.00 0.00 0.00 83 1056.0
20260505181418 10 67 6.4 0.0 0.00 0.00 0.00 83 1055.9
20260505181313 10 45 19.3 0.0 0.00 0.00 0.00 83 1055.9
20260505181205 10 0 6.4 0.0 0.00 0.00 0.00 83 1055.9
20260505181054 10 45 17.7 0.0 0.00 0.00 0.00 83 1056.0
20260505180945 10 0 9.7 0.0 0.00 0.00 0.00 83 1056.0
20260505180831 10 315 11.3 0.0 0.00 0.00 0.00 83 1056.0
20260505180725 10 22 16.1 0.0 0.00 0.00 0.00 83 1056.0
20260505180618 10 0 8.0 0.0 0.00 0.00 0.00 83 1056.0
20260505180504 10 22 11.3 0.0 0.00 0.00 0.00 83 1056.0
20260505180352 10 45 12.9 0.0 0.00 0.00 0.00 83 1056.0
20260505180244 10 67 14.5 0.0 0.00 0.00 0.00 83 1056.0
20260505180130 10 0 20.9 0.0 0.00 0.00 0.00 83 1056.0
20260505180017 10 0 20.9 0.0 0.00 0.00 0.00 82 1056.0
20260505175857 10 45 12.9 0.0 0.00 0.00 0.00 82 1056.0
20260505175749 10 0 14.5 0.0 0.00 0.00 0.00 82 1056.0
20260505175642 10 22 8.0 0.0 0.00 0.00 0.00 82 1056.0
20260505175528 10 0 11.3 0.0 0.00 0.00 0.00 82 1056.1
20260505175414 10 0 17.7 0.0 0.00 0.00 0.00 82 1056.1
20260505175300 10 22 9.7 0.0 0.00 0.00 0.00 82 1056.0
20260505175138 10 0 6.4 0.0 0.00 0.00 0.00 82 1056.0
20260505175025 10 22 14.5 0.0 0.00 0.00 0.00 82 1056.0
20260505174912 10 0 16.1 0.0 0.00 0.00 0.00 82 1055.9
20260505174759 10 337 9.7 0.0 0.00 0.00 0.00 81 1056.0
20260505174638 10 22 12.9 0.0 0.00 0.00 0.00 81 1056.0
20260505174518 10 22 6.4 0.0 0.00 0.00 0.00 81 1056.1
20260505174408 10 0 9.7 0.0 0.00 0.00 0.00 81 1056.0
20260505174051 10 0 3.2 0.0 0.00 0.00 0.00 81 1056.1
20260505173936 10 22 12.9 0.0 0.00 0.00 0.00 81 1056.0
20260505173814 10 22 9.7 0.0 0.00 0.00 0.00 81 1056.1
20260505173701 10 22 11.3 0.0 0.00 0.00 0.00 81 1056.1
20260505173549 10 90 19.3 0.0 0.00 0.00 0.00 81 1056.0
20260505173443 10 0 20.9 0.0 0.00 0.00 0.00 81 1056.1
20260505173330 10 45 9.7 0.0 0.00 0.00 0.00 82 1056.1
20260505173225 10 337 8.0 0.0 0.00 0.00 0.00 82 1056.1
20260505173115 10 22 9.7 0.0 0.00 0.00 0.00 82 1056.1
20260505173005 10 45 6.4 0.0 0.00 0.00 0.00 82 1056.1
20260505172846 10 0 16.1 0.0 0.00 0.00 0.00 82 1056.1
20260505172732 10 337 11.3 0.0 0.00 0.00 0.00 82 1056.1
20260505172603 10 45 16.1 0.0 0.00 0.00 0.00 82 1056.1
20260505172434 10 0 9.7 0.0 0.00 0.00 0.00 82 1056.2
20260505172320 10 22 11.3 0.0 0.00 0.00 0.00 82 1056.2
20260505172159 10 0 9.7 0.0 0.00 0.00 0.00 82 1056.2
20260505172037 10 22 6.4 0.0 0.00 0.00 0.00 81 1056.2
20260505171919 10 0 9.7 0.0 0.00 0.00 0.00 81 1056.3
20260505171810 10 22 24.1 0.0 0.00 0.00 0.00 81 1056.3
20260505171649 10 0 17.7 0.0 0.00 0.00 0.00 81 1056.2
20260505171544 10 67 14.5 0.0 0.00 0.00 0.00 81 1056.2
20260505171429 10 0 9.7 0.0 0.00 0.00 0.00 81 1056.3
20260505171300 10 337 11.3 0.0 0.00 0.00 0.00 81 1056.2
20260505171139 10 0 16.1 0.0 0.00 0.00 0.00 81 1056.3
20260505171020 10 22 9.7 0.0 0.00 0.00 0.00 81 1056.2
20260505170913 10 337 12.9 0.0 0.00 0.00 0.00 81 1056.3
20260505170744 10 0 12.9 0.0 0.00 0.00 0.00 81 1056.3
20260505170631 10 22 9.7 0.0 0.00 0.00 0.00 81 1056.2
20260505170524 10 0 19.3 0.0 0.00 0.00 0.00 80 1056.3
20260505170405 10 337 22.5 0.0 0.00 0.00 0.00 80 1056.2
20260505170251 10 67 9.7 0.0 0.00 0.00 0.00 80 1056.3
20260505170138 10 22 8.0 0.0 0.00 0.00 0.00 80 1056.3
20260505170025 10 22 14.5 0.0 0.00 0.00 0.00 80 1056.4
20260505165904 10 45 16.1 0.0 0.00 0.00 0.00 80 1056.3
20260505165744 10 22 17.7 0.0 0.00 0.00 0.00 80 1056.2
20260505165631 11 0 24.1 0.0 0.00 0.00 0.00 80 1056.2
20260505165524 11 45 12.9 0.0 0.00 0.00 0.00 80 1056.2
20260505165413 11 22 6.4 0.0 0.00 0.00 0.00 80 1056.2
20260505165308 11 0 11.3 0.0 0.00 0.00 0.00 80 1056.2
20260505165204 11 337 14.5 0.0 0.00 0.00 0.00 79 1056.2
20260505165056 11 45 14.5 0.0 0.00 0.00 0.00 79 1056.2
20260505164934 11 22 9.7 0.0 0.00 0.00 0.00 79 1056.3
20260505164814 11 0 11.3 0.0 0.00 0.00 0.00 80 1056.2
20260505164701 11 45 9.7 0.0 0.00 0.00 0.00 80 1056.2
20260505164548 11 22 17.7 0.0 0.00 0.00 0.00 79 1056.3
20260505164436 11 22 20.9 0.0 0.00 0.00 0.00 79 1056.2
20260505164332 11 22 8.0 0.0 0.00 0.00 0.00 80 1056.3
20260505164223 11 22 9.7 0.0 0.00 0.00 0.00 80 1056.3
20260505164057 11 0 8.0 0.0 0.00 0.00 0.00 80 1056.3
20260505163949 11 0 16.1 0.0 0.00 0.00 0.00 80 1056.3
20260505163828 11 22 6.4 0.0 0.00 0.00 0.00 80 1056.3
20260505163700 11 0 9.7 0.0 0.00 0.00 0.00 79 1056.3
20260505163554 11 0 27.4 0.0 0.00 0.00 0.00 79 1056.3
20260505163434 11 0 14.5 0.0 0.00 0.00 0.00 79 1056.3
20260505163328 11 22 6.4 0.0 0.00 0.00 0.00 79 1056.3
20260505163207 11 0 14.5 0.0 0.00 0.00 0.00 79 1056.3
20260505163046 11 0 22.5 0.0 0.00 0.00 0.00 79 1056.3
20260505162932 11 337 12.9 0.0 0.00 0.00 0.00 78 1056.3
20260505162811 11 45 1.6 0.0 0.00 0.00 0.00 78 1056.3
20260505162657 11 22 16.1 0.0 0.00 0.00 0.00 78 1056.3
20260505162542 11 67 16.1 0.0 0.00 0.00 0.00 78 1056.3
20260505162430 11 0 14.5 0.0 0.00 0.00 0.00 78 1056.3
20260505162323 11 45 17.7 0.0 0.00 0.00 0.00 78 1056.4
20260505162209 11 45 22.5 0.0 0.00 0.00 0.00 78 1056.4
20260505162055 11 45 8.0 0.0 0.00 0.00 0.00 78 1056.3
20260505161925 11 0 9.7 0.0 0.00 0.00 0.00 78 1056.3
20260505161811 11 0 6.4 0.0 0.00 0.00 0.00 78 1056.4
20260505161655 11 22 0.0 0.0 0.00 0.00 0.00 78 1056.4
20260505161534 11 45 14.5 0.0 0.00 0.00 0.00 77 1056.4
20260505161419 11 45 9.7 0.0 0.00 0.00 0.00 77 1056.4
20260505161305 11 22 17.7 0.0 0.00 0.00 0.00 78 1056.3
20260505161150 11 0 17.7 0.0 0.00 0.00 0.00 77 1056.4
20260505161029 11 0 8.0 0.0 0.00 0.00 0.00 77 1056.4
20260505160914 11 22 25.7 0.0 0.00 0.00 0.00 77 1056.5
20260505160755 11 22 11.3 0.0 0.00 0.00 0.00 77 1056.4
20260505160646 11 22 9.7 0.0 0.00 0.00 0.00 77 1056.4
20260505160532 11 67 17.7 0.0 0.00 0.00 0.00 76 1056.5
20260505160417 11 0 11.3 0.0 0.00 0.00 0.00 76 1056.5
20260505160255 11 45 8.0 0.0 0.00 0.00 0.00 75 1056.4
20260505160142 11 22 22.5 0.0 0.00 0.00 0.00 75 1056.5
20260505153307 11 45 12.9 0.0 0.00 0.00 0.00 75 1056.5
20260505153154 11 22 3.2 0.0 0.00 0.00 0.00 74 1056.5
20260505153040 11 45 16.1 0.0 0.00 0.00 0.00 74 1056.6
20260505152918 11 45 14.5 0.0 0.00 0.00 0.00 74 1056.5
20260505152807 11 22 20.9 0.0 0.00 0.00 0.00 74 1056.5
20260505152701 11 45 14.5 0.0 0.00 0.00 0.00 74 1056.5
20260505152539 11 22 11.3 0.0 0.00 0.00 0.00 74 1056.6
20260505152418 11 0 9.7 0.0 0.00 0.00 0.00 73 1056.6
20260505152251 11 22 11.3 0.0 0.00 0.00 0.00 74 1056.6
20260505152144 11 0 19.3 0.0 0.00 0.00 0.00 74 1056.6
20260505152031 11 0 16.1 0.0 0.00 0.00 0.00 74 1056.7
20260505151925 11 67 4.8 0.0 0.00 0.00 0.00 74 1056.6
20260505151813 11 22 4.8 0.0 0.00 0.00 0.00 73 1056.6
20260505151700 11 22 9.7 0.0 0.00 0.00 0.00 73 1056.7
20260505151546 12 0 22.5 0.0 0.00 0.00 0.00 73 1056.6
20260505151433 12 0 17.7 0.0 0.00 0.00 0.00 74 1056.7
20260505151314 12 0 3.2 0.0 0.00 0.00 0.00 74 1056.7
20260505151159 12 337 9.7 0.0 0.00 0.00 0.00 74 1056.7
20260505151038 12 45 11.3 0.0 0.00 0.00 0.00 74 1056.7
20260505150919 12 0 9.7 0.0 0.00 0.00 0.00 74 1056.7
20260505150812 12 0 17.7 0.0 0.00 0.00 0.00 73 1056.6
20260505150659 12 0 27.4 0.0 0.00 0.00 0.00 73 1056.6
20260505150556 12 22 9.7 0.0 0.00 0.00 0.00 73 1056.7
20260505150446 12 337 12.9 0.0 0.00 0.00 0.00 73 1056.7
20260505150319 12 22 9.7 0.0 0.00 0.00 0.00 72 1056.6
20260505150158 12 0 25.7 0.0 0.00 0.00 0.00 73 1056.7
20260505140625 13 90 9.7 0.0 0.00 0.00 0.00 71 1056.9
20260505140512 13 22 4.8 0.0 0.00 0.00 0.00 70 1056.9
20260505140406 13 22 6.4 0.0 0.00 0.00 0.00 70 1056.9
20260505140301 13 0 9.7 0.0 0.00 0.00 0.00 70 1057.0
20260505140140 13 22 11.3 0.0 0.00 0.00 0.00 70 1056.9
20260505130304 12 67 3.2 0.0 0.00 0.00 0.00 72 1057.2
20260505130150 12 22 8.0 0.0 0.00 0.00 0.00 73 1057.2
20260505125004 12 0 8.0 0.0 0.00 0.00 0.00 75 1057.3
20260505124853 11 22 6.4 0.0 0.00 0.00 0.00 75 1057.2
20260505124746 11 45 9.7 0.0 0.00 0.00 0.00 75 1057.3
20260505124633 11 45 3.2 0.0 0.00 0.00 0.00 75 1057.3
20260505124503 11 22 9.7 0.0 0.00 0.00 0.00 75 1057.3
20260505124351 11 22 11.3 0.0 0.00 0.00 0.00 76 1057.3
20260505124245 11 22 8.0 0.0 0.00 0.00 0.00 76 1057.3
20260505124124 11 22 4.8 0.0 0.00 0.00 0.00 75 1057.3
20260505124014 11 22 12.9 0.0 0.00 0.00 0.00 76 1057.3
20260505123906 11 22 4.8 0.0 0.00 0.00 0.00 76 1057.3
20260505123753 11 45 8.0 0.0 0.00 0.00 0.00 75 1057.3
20260505123647 11 0 8.0 0.0 0.00 0.00 0.00 76 1057.3
20260505123517 11 22 8.0 0.0 0.00 0.00 0.00 76 1057.3
20260505123403 11 45 8.0 0.0 0.00 0.00 0.00 75 1057.3
20260505123257 11 22 6.4 0.0 0.00 0.00 0.00 75 1057.4
20260505123152 11 0 16.1 0.0 0.00 0.00 0.00 74 1057.4
20260505123047 11 45 17.7 0.0 0.00 0.00 0.00 74 1057.4
20260505122942 11 45 19.3 0.0 0.00 0.00 0.00 75 1057.4
20260505122836 11 0 9.7 0.0 0.00 0.00 0.00 74 1057.4
20260505122726 11 45 9.7 0.0 0.00 0.00 0.00 74 1057.4
20260505122620 11 45 19.3 0.0 0.00 0.00 0.00 74 1057.4
20260505122514 11 90 9.7 0.0 0.00 0.00 0.00 74 1057.4
20260505122352 11 22 17.7 0.0 0.00 0.00 0.00 74 1057.5
20260505122239 11 0 12.9 0.0 0.00 0.00 0.00 75 1057.4
20260505122117 11 45 6.4 0.0 0.00 0.00 0.00 74 1057.4
20260505122005 11 45 4.8 0.0 0.00 0.00 0.00 74 1057.4
20260505121851 11 22 11.3 0.0 0.00 0.00 0.00 74 1057.4
20260505121738 11 45 9.7 0.0 0.00 0.00 0.00 74 1057.4
20260505121619 11 0 4.8 0.0 0.00 0.00 0.00 74 1057.4
20260505121512 11 0 9.7 0.0 0.00 0.00 0.00 74 1057.3
20260505121359 11 45 12.9 0.0 0.00 0.00 0.00 74 1057.4
20260505121245 11 0 8.0 0.0 0.00 0.00 0.00 73 1057.3
20260505121124 11 45 4.8 0.0 0.00 0.00 0.00 73 1057.4
20260505121003 11 45 11.3 0.0 0.00 0.00 0.00 73 1057.4
20260505120852 11 22 14.5 0.0 0.00 0.00 0.00 73 1057.4
20260505120747 11 45 11.3 0.0 0.00 0.00 0.00 72 1057.4
20260505120642 11 45 12.9 0.0 0.00 0.00 0.00 73 1057.3
20260505120520 12 22 9.7 0.0 0.00 0.00 0.00 72 1057.4
20260505120414 12 45 6.4 0.0 0.00 0.00 0.00 71 1057.3
20260505120308 12 45 8.0 0.0 0.00 0.00 0.00 71 1057.3
20260505120201 12 337 6.4 0.0 0.00 0.00 0.00 71 1057.3
20260505120048 12 67 17.7 0.0 0.00 0.00 0.00 71 1057.4
20260505115935 12 0 8.0 0.0 0.00 0.00 0.00 71 1057.4
20260505115805 12 45 17.7 0.0 0.00 0.00 0.00 70 1057.4
20260505115644 12 0 9.7 0.0 0.00 0.00 0.00 69 1057.4
20260505115532 12 45 16.1 0.0 0.00 0.00 0.00 69 1057.3
20260505115426 12 22 11.3 0.0 0.00 0.00 0.00 70 1057.4
20260505115313 12 22 4.8 0.0 0.00 0.00 0.00 70 1057.4
20260505115201 12 45 8.0 0.0 0.00 0.00 0.00 70 1057.4
20260505115054 12 22 14.5 0.0 0.00 0.00 0.00 70 1057.3
20260505114934 12 22 4.8 0.0 0.00 0.00 0.00 69 1057.4
20260505114829 12 22 12.9 0.0 0.00 0.00 0.00 69 1057.4
20260505114707 12 67 11.3 0.0 0.00 0.00 0.00 69 1057.3
20260505114542 12 45 9.7 0.0 0.00 0.00 0.00 69 1057.3
20260505114433 12 0 9.7 0.0 0.00 0.00 0.00 69 1057.3
20260505114312 12 337 9.7 0.0 0.00 0.00 0.00 69 1057.3
20260505114159 12 45 16.1 0.0 0.00 0.00 0.00 68 1057.3
20260505114038 12 0 9.7 0.0 0.00 0.00 0.00 68 1057.3
20260505113933 12 22 14.5 0.0 0.00 0.00 0.00 68 1057.3
20260505113828 12 22 11.3 0.0 0.00 0.00 0.00 69 1057.3
20260505113714 12 45 8.0 0.0 0.00 0.00 0.00 69 1057.3
20260505113601 12 45 19.3 0.0 0.00 0.00 0.00 69 1057.3
20260505113440 12 22 6.4 0.0 0.00 0.00 0.00 71 1057.3
20260505113321 12 45 9.7 0.0 0.00 0.00 0.00 71 1057.3
20260505113214 12 22 9.7 0.0 0.00 0.00 0.00 71 1057.3
20260505113109 12 67 11.3 0.0 0.00 0.00 0.00 71 1057.3
20260505113003 12 22 3.2 0.0 0.00 0.00 0.00 70 1057.3
20260505112835 12 45 9.7 0.0 0.00 0.00 0.00 70 1057.3
20260505112730 12 45 8.0 0.0 0.00 0.00 0.00 70 1057.3
20260505112624 12 67 14.5 0.0 0.00 0.00 0.00 69 1057.3
20260505112511 12 67 24.1 0.0 0.00 0.00 0.00 71 1057.3
20260505112406 12 45 4.8 0.0 0.00 0.00 0.00 70 1057.3
20260505112252 12 112 9.7 0.0 0.00 0.00 0.00 71 1057.3
20260505112140 12 0 8.0 0.0 0.00 0.00 0.00 71 1057.3
20260505112027 12 22 12.9 0.0 0.00 0.00 0.00 71 1057.3
20260505111912 12 0 6.4 0.0 0.00 0.00 0.00 71 1057.3
20260505111759 12 90 6.4 0.0 0.00 0.00 0.00 71 1057.4
20260505111645 12 0 8.0 0.0 0.00 0.00 0.00 71 1057.3
20260505111533 12 90 11.3 0.0 0.00 0.00 0.00 71 1057.4
20260505111426 12 22 9.7 0.0 0.00 0.00 0.00 72 1057.4
20260505111321 12 22 11.3 0.0 0.00 0.00 0.00 72 1057.4
20260505111208 11 45 11.3 0.0 0.00 0.00 0.00 73 1057.3
20260505111102 11 337 6.4 0.0 0.00 0.00 0.00 73 1057.3
20260505110958 11 22 11.3 0.0 0.00 0.00 0.00 73 1057.3
20260505110852 11 22 8.0 0.0 0.00 0.00 0.00 73 1057.3
20260505110732 11 22 6.4 0.0 0.00 0.00 0.00 73 1057.3
20260505110626 11 0 6.4 0.0 0.00 0.00 0.00 73 1057.2
20260505110505 11 45 8.0 0.0 0.00 0.00 0.00 73 1057.2
20260505110335 11 22 4.8 0.0 0.00 0.00 0.00 74 1057.3
20260505110223 11 45 4.8 0.0 0.00 0.00 0.00 73 1057.3
20260505110110 11 67 9.7 0.0 0.00 0.00 0.00 73 1057.3
20260505102153 11 22 4.8 0.0 0.00 0.00 0.00 74 1057.3
20260505102040 11 22 6.4 0.0 0.00 0.00 0.00 74 1057.5
20260505101926 11 45 11.3 0.0 0.00 0.00 0.00 73 1057.4
20260505101807 11 22 19.3 0.0 0.00 0.00 0.00 73 1057.4
20260505101701 11 22 9.7 0.0 0.00 0.00 0.00 73 1057.5
20260505101548 11 22 9.7 0.0 0.00 0.00 0.00 73 1057.4
20260505101442 11 90 1.6 0.0 0.00 0.00 0.00 73 1057.5
20260505101337 11 22 9.7 0.0 0.00 0.00 0.00 73 1057.5
20260505101208 11 0 9.7 0.0 0.00 0.00 0.00 74 1057.5
20260505101054 11 90 8.0 0.0 0.00 0.00 0.00 74 1057.5
20260505100934 11 67 9.7 0.0 0.00 0.00 0.00 74 1057.5
20260505100820 11 22 4.8 0.0 0.00 0.00 0.00 74 1057.5
20260505100707 11 45 11.3 0.0 0.00 0.00 0.00 74 1057.5
20260505100603 11 22 17.7 0.0 0.00 0.00 0.00 75 1057.5
20260505100458 11 22 9.7 0.0 0.00 0.00 0.00 74 1057.5
20260505100338 11 22 3.2 0.0 0.00 0.00 0.00 74 1057.6
20260505100223 11 67 11.3 0.0 0.00 0.00 0.00 74 1057.6
20260505100110 11 22 11.3 0.0 0.00 0.00 0.00 74 1057.5
20260505100005 11 22 14.5 0.0 0.00 0.00 0.00 75 1057.7
20260505095846 11 22 4.8 0.0 0.00 0.00 0.00 75 1057.7
20260505095741 11 22 3.2 0.0 0.00 0.00 0.00 75 1057.8
20260505095636 11 22 3.2 0.0 0.00 0.00 0.00 75 1057.7
20260505095521 11 22 6.4 0.0 0.00 0.00 0.00 74 1057.8
20260505095407 11 67 8.0 0.0 0.00 0.00 0.00 74 1057.8
20260505095247 11 0 14.5 0.0 0.00 0.00 0.00 74 1057.9
20260505095141 11 22 9.7 0.0 0.00 0.00 0.00 74 1057.8
20260505095028 11 22 8.0 0.0 0.00 0.00 0.00 75 1057.9
20260505094923 11 22 3.2 0.0 0.00 0.00 0.00 75 1057.9
20260505094810 11 90 8.0 0.0 0.00 0.00 0.00 75 1057.9
20260505094705 11 45 6.4 0.0 0.00 0.00 0.00 75 1057.9
20260505094552 11 0 11.3 0.0 0.00 0.00 0.00 75 1057.9
20260505094441 11 67 6.4 0.0 0.00 0.00 0.00 75 1058.0
20260505094334 11 22 6.4 0.0 0.00 0.00 0.00 75 1057.9
20260505094221 11 45 12.9 0.0 0.00 0.00 0.00 74 1058.0
20260505094107 11 45 11.3 0.0 0.00 0.00 0.00 75 1058.0
20260505093954 11 45 9.7 0.0 0.00 0.00 0.00 75 1058.0
20260505093833 11 22 12.9 0.0 0.00 0.00 0.00 75 1058.1
20260505093711 11 0 4.8 0.0 0.00 0.00 0.00 75 1058.1
20260505093550 11 22 0.0 0.0 0.00 0.00 0.00 75 1058.1
20260505093437 10 45 0.0 0.0 0.00 0.00 0.00 75 1058.1
20260505093331 11 90 12.9 0.0 0.00 0.00 0.00 75 1058.1
20260505093225 11 90 16.1 0.0 0.00 0.00 0.00 75 1058.1
20260505093111 11 45 6.4 0.0 0.00 0.00 0.00 75 1058.1
20260505092951 11 22 9.7 0.0 0.00 0.00 0.00 75 1058.0
20260505092845 11 22 4.8 0.0 0.00 0.00 0.00 75 1058.1
20260505092732 11 22 11.3 0.0 0.00 0.00 0.00 75 1058.1
20260505092626 11 22 8.0 0.0 0.00 0.00 0.00 76 1058.1
20260505092506 11 45 6.4 0.0 0.00 0.00 0.00 76 1058.2
20260505092354 11 45 3.2 0.0 0.00 0.00 0.00 75 1058.2
20260505092248 11 22 17.7 0.0 0.00 0.00 0.00 75 1058.1
20260505092142 11 45 11.3 0.0 0.00 0.00 0.00 75 1058.2
20260505092029 11 22 8.0 0.0 0.00 0.00 0.00 75 1058.0
20260505091925 11 22 11.3 0.0 0.00 0.00 0.00 75 1058.1
20260505091819 11 45 6.4 0.0 0.00 0.00 0.00 76 1058.1
20260505091715 11 292 8.0 0.0 0.00 0.00 0.00 76 1058.2
20260505091608 11 22 0.0 0.0 0.00 0.00 0.00 76 1058.1
20260505091503 11 45 4.8 0.0 0.00 0.00 0.00 76 1058.2
20260505091357 11 22 8.0 0.0 0.00 0.00 0.00 76 1058.1
20260505091251 10 45 14.5 0.0 0.00 0.00 0.00 76 1058.1
20260505091145 10 0 9.7 0.0 0.00 0.00 0.00 76 1058.2
20260505091024 10 22 14.5 0.0 0.00 0.00 0.00 76 1058.1
20260505090910 10 22 4.8 0.0 0.00 0.00 0.00 76 1058.1
20260505090750 10 45 3.2 0.0 0.00 0.00 0.00 76 1058.1
20260505090646 10 67 1.6 0.0 0.00 0.00 0.00 75 1058.3
20260505090540 10 45 8.0 0.0 0.00 0.00 0.00 76 1058.2
20260505090432 10 22 9.7 0.0 0.00 0.00 0.00 76 1058.2
20260505090159 10 22 11.3 0.0 0.00 0.00 0.00 76 1058.2
20260505090054 10 22 11.3 0.0 0.00 0.00 0.00 76 1058.1
20260505085810 10 67 11.3 0.0 0.00 0.00 0.00 75 1058.0
20260505085705 10 45 6.4 0.0 0.00 0.00 0.00 75 1058.1
20260505085540 10 337 6.4 0.0 0.00 0.00 0.00 75 1058.1
20260505085429 10 22 12.9 0.0 0.00 0.00 0.00 75 1058.0
20260505085308 10 45 12.9 0.0 0.00 0.00 0.00 75 1058.1
20260505085139 10 0 12.9 0.0 0.00 0.00 0.00 75 1058.1
20260505085034 10 22 9.7 0.0 0.00 0.00 0.00 75 1058.1
20260505084928 10 0 9.7 0.0 0.00 0.00 0.00 75 1058.1
20260505084823 10 22 4.8 0.0 0.00 0.00 0.00 75 1058.1
20260505084719 10 45 22.5 0.0 0.00 0.00 0.00 75 1058.2
20260505084613 10 45 12.9 0.0 0.00 0.00 0.00 75 1058.1
20260505084508 10 45 6.4 0.0 0.00 0.00 0.00 75 1058.1
20260505084355 10 22 4.8 0.0 0.00 0.00 0.00 75 1058.0
20260505084234 11 45 12.9 0.0 0.00 0.00 0.00 75 1058.1
20260505084129 11 0 9.7 0.0 0.00 0.00 0.00 75 1058.1
20260505084015 11 45 8.0 0.0 0.00 0.00 0.00 75 1058.2
20260505083910 11 0 6.4 0.0 0.00 0.00 0.00 75 1058.2
20260505083804 11 22 4.8 0.0 0.00 0.00 0.00 75 1058.2
20260505083650 11 45 8.0 0.0 0.00 0.00 0.00 75 1058.2
20260505083537 11 22 9.7 0.0 0.00 0.00 0.00 75 1058.1
20260505083415 10 45 19.3 0.0 0.00 0.00 0.00 75 1058.1
20260505083246 10 90 4.8 0.0 0.00 0.00 0.00 75 1058.2
20260505083134 10 45 9.7 0.0 0.00 0.00 0.00 75 1058.0
20260505083028 10 22 12.9 0.0 0.00 0.00 0.00 75 1058.1
20260505082918 10 45 8.0 0.0 0.00 0.00 0.00 75 1058.1
20260505082812 10 22 8.0 0.0 0.00 0.00 0.00 75 1058.0
20260505082657 11 22 16.1 0.0 0.00 0.00 0.00 75 1058.1
20260505082537 11 22 9.7 0.0 0.00 0.00 0.00 75 1058.0
20260505082430 11 45 14.5 0.0 0.00 0.00 0.00 75 1058.0
20260505082311 10 45 3.2 0.0 0.00 0.00 0.00 76 1058.0
20260505082205 10 0 8.0 0.0 0.00 0.00 0.00 75 1058.0
20260505082058 10 22 8.0 0.0 0.00 0.00 0.00 75 1058.0
20260505081946 10 0 6.4 0.0 0.00 0.00 0.00 75 1058.0
20260505081833 10 0 6.4 0.0 0.00 0.00 0.00 75 1058.0
20260505081719 10 22 11.3 0.0 0.00 0.00 0.00 76 1057.9
20260505081605 10 45 9.7 0.0 0.00 0.00 0.00 75 1058.0
20260505081445 10 45 6.4 0.0 0.00 0.00 0.00 75 1058.0
20260505081340 10 45 11.3 0.0 0.00 0.00 0.00 75 1058.0
20260505081233 10 22 8.0 0.0 0.00 0.00 0.00 75 1058.0
20260505081115 10 22 11.3 0.0 0.00 0.00 0.00 75 1058.1
20260505081007 10 45 9.7 0.0 0.00 0.00 0.00 75 1058.0
20260505080855 10 45 16.1 0.0 0.00 0.00 0.00 75 1058.0
20260505080742 10 22 4.8 0.0 0.00 0.00 0.00 75 1058.1
20260505080622 10 45 20.9 0.0 0.00 0.00 0.00 76 1058.0
20260505080515 10 0 6.4 0.0 0.00 0.00 0.00 76 1058.0
20260505080410 10 90 6.4 0.0 0.00 0.00 0.00 76 1058.1
20260505080302 10 22 4.8 0.0 0.00 0.00 0.00 76 1058.1
20260505080149 10 45 8.0 0.0 0.00 0.00 0.00 76 1058.1
20260505080036 10 45 4.8 0.0 0.00 0.00 0.00 76 1058.1
20260505075930 10 0 9.7 0.0 0.00 0.00 0.00 76 1058.1
20260505075824 10 22 6.4 0.0 0.00 0.00 0.00 76 1058.1
20260505075712 10 45 0.0 0.0 0.00 0.00 0.00 76 1058.0
20260505075553 10 22 9.7 0.0 0.00 0.00 0.00 76 1058.0
20260505075446 10 90 3.2 0.0 0.00 0.00 0.00 76 1058.0
20260505075333 10 112 8.0 0.0 0.00 0.00 0.00 76 1058.0
20260505075228 10 90 4.8 0.0 0.00 0.00 0.00 76 1058.1
20260505075114 10 45 0.0 0.0 0.00 0.00 0.00 76 1058.0
20260505074945 10 22 8.0 0.0 0.00 0.00 0.00 76 1058.0
20260505074840 10 45 16.1 0.0 0.00 0.00 0.00 76 1058.0
20260505074735 10 0 12.9 0.0 0.00 0.00 0.00 77 1058.0
20260505074629 10 45 16.1 0.0 0.00 0.00 0.00 77 1058.0
20260505074523 10 45 8.0 0.0 0.00 0.00 0.00 77 1058.0
20260505074409 10 45 9.7 0.0 0.00 0.00 0.00 77 1058.0
20260505074301 10 22 4.8 0.0 0.00 0.00 0.00 76 1058.0
20260505074140 10 45 12.9 0.0 0.00 0.00 0.00 76 1058.0
20260505074026 10 90 12.9 0.0 0.00 0.00 0.00 76 1058.0
20260505073919 10 45 14.5 0.0 0.00 0.00 0.00 77 1058.0
20260505073814 10 45 6.4 0.0 0.00 0.00 0.00 77 1058.0
20260505073709 10 90 8.0 0.0 0.00 0.00 0.00 77 1058.0
20260505073602 10 45 9.7 0.0 0.00 0.00 0.00 77 1058.0
20260505073455 10 45 11.3 0.0 0.00 0.00 0.00 76 1058.0
20260505073341 10 90 8.0 0.0 0.00 0.00 0.00 76 1058.0
20260505073220 10 45 4.8 0.0 0.00 0.00 0.00 76 1058.0
20260505073114 10 45 12.9 0.0 0.00 0.00 0.00 76 1058.0
20260505073007 10 0 11.3 0.0 0.00 0.00 0.00 77 1058.1
20260505072854 10 67 11.3 0.0 0.00 0.00 0.00 78 1058.1
20260505072749 10 67 8.0 0.0 0.00 0.00 0.00 78 1058.1
20260505072643 10 67 8.0 0.0 0.00 0.00 0.00 78 1058.1
20260505072535 10 0 9.7 0.0 0.00 0.00 0.00 78 1058.0
20260505072422 10 112 9.7 0.0 0.00 0.00 0.00 78 1058.1
20260505072309 10 45 6.4 0.0 0.00 0.00 0.00 78 1058.0
20260505072159 10 67 0.0 0.0 0.00 0.00 0.00 78 1058.0
20260505072052 10 67 4.8 0.0 0.00 0.00 0.00 78 1058.0
20260505071946 10 45 0.0 0.0 0.00 0.00 0.00 78 1058.1
20260505071833 10 45 6.4 0.0 0.00 0.00 0.00 78 1058.0
20260505071727 10 67 6.4 0.0 0.00 0.00 0.00 78 1058.0
20260505071615 10 22 4.8 0.0 0.00 0.00 0.00 78 1058.0
20260505071502 10 45 6.4 0.0 0.00 0.00 0.00 78 1058.1
20260505071351 10 22 8.0 0.0 0.00 0.00 0.00 79 1058.1
20260505071243 10 22 0.0 0.0 0.00 0.00 0.00 79 1058.1
20260505071131 10 90 4.8 0.0 0.00 0.00 0.00 79 1058.1
20260505071025 10 112 0.0 0.0 0.00 0.00 0.00 79 1058.1
20260505070913 9 45 3.2 0.0 0.00 0.00 0.00 80 1058.1
20260505070759 9 67 4.8 0.0 0.00 0.00 0.00 80 1058.1
20260505070646 9 67 0.0 0.0 0.00 0.00 0.00 80 1058.1
20260505070533 9 67 9.7 0.0 0.00 0.00 0.00 80 1058.1
20260505070429 9 45 11.3 0.0 0.00 0.00 0.00 80 1058.2
20260505070323 9 22 9.7 0.0 0.00 0.00 0.00 80 1058.1
20260505070218 9 90 6.4 0.0 0.00 0.00 0.00 80 1058.1
20260505070113 9 67 6.4 0.0 0.00 0.00 0.00 79 1058.0
20260505070000 9 67 1.6 0.0 0.00 0.00 0.00 79 1058.1
20260505065855 9 67 1.6 0.0 0.00 0.00 0.00 80 1058.1
20260505065742 9 22 11.3 0.0 0.00 0.00 0.00 80 1058.1
20260505065630 9 67 1.6 0.0 0.00 0.00 0.00 80 1058.2
20260505065526 9 45 9.7 0.0 0.00 0.00 0.00 80 1058.1
20260505065418 9 45 6.4 0.0 0.00 0.00 0.00 80 1058.1
20260505065259 9 67 0.0 0.0 0.00 0.00 0.00 80 1058.2
20260505065152 9 22 11.3 0.0 0.00 0.00 0.00 80 1058.1
20260505065039 9 45 8.0 0.0 0.00 0.00 0.00 80 1058.1
20260505064928 9 45 12.9 0.0 0.00 0.00 0.00 80 1058.1
20260505064821 9 45 3.2 0.0 0.00 0.00 0.00 80 1058.2
20260505064709 9 45 14.5 0.0 0.00 0.00 0.00 80 1058.2
20260505064603 9 0 9.7 0.0 0.00 0.00 0.00 80 1058.2
20260505064450 9 45 4.8 0.0 0.00 0.00 0.00 80 1058.2
20260505064345 9 22 12.9 0.0 0.00 0.00 0.00 80 1058.2
20260505064224 9 22 6.4 0.0 0.00 0.00 0.00 80 1058.2
20260505064111 9 0 4.8 0.0 0.00 0.00 0.00 80 1058.1
20260505063957 9 67 6.4 0.0 0.00 0.00 0.00 80 1058.1
20260505063836 9 0 8.0 0.0 0.00 0.00 0.00 80 1058.2
20260505063723 9 67 9.7 0.0 0.00 0.00 0.00 80 1058.2
20260505063602 9 22 9.7 0.0 0.00 0.00 0.00 81 1058.2
20260505063440 9 22 8.0 0.0 0.00 0.00 0.00 81 1058.1
20260505063311 9 22 9.7 0.0 0.00 0.00 0.00 81 1058.2
20260505063142 9 67 6.4 0.0 0.00 0.00 0.00 81 1058.1
20260505063030 9 45 4.8 0.0 0.00 0.00 0.00 81 1058.2
20260505062925 9 22 3.2 0.0 0.00 0.00 0.00 81 1058.2
20260505062822 8 45 8.0 0.0 0.00 0.00 0.00 81 1058.2
20260505062716 8 45 0.0 0.0 0.00 0.00 0.00 81 1058.2
20260505062608 8 45 4.8 0.0 0.00 0.00 0.00 81 1058.3
20260505062439 8 45 0.0 0.0 0.00 0.00 0.00 81 1058.3
20260505062318 8 45 8.0 0.0 0.00 0.00 0.00 81 1058.3
20260505062149 8 90 3.2 0.0 0.00 0.00 0.00 81 1058.3
20260505062035 8 90 8.0 0.0 0.00 0.00 0.00 81 1058.3
20260505061858 8 45 9.7 0.0 0.00 0.00 0.00 80 1058.3
20260505061615 8 45 9.7 0.0 0.00 0.00 0.00 80 1058.2
20260505061451 8 45 6.4 0.0 0.00 0.00 0.00 80 1058.4
20260505061236 8 45 3.2 0.0 0.00 0.00 0.00 80 1058.4
20260505061107 8 45 4.8 0.0 0.00 0.00 0.00 80 1058.3
20260505060946 8 45 11.3 0.0 0.00 0.00 0.00 80 1058.3
20260505060832 8 90 4.8 0.0 0.00 0.00 0.00 80 1058.3
20260505060712 8 22 8.0 0.0 0.00 0.00 0.00 80 1058.3
20260505060558 8 45 9.7 0.0 0.00 0.00 0.00 81 1058.3
20260505060429 8 67 9.7 0.0 0.00 0.00 0.00 81 1058.3
20260505060315 8 22 4.8 0.0 0.00 0.00 0.00 81 1058.2
20260505060138 8 45 8.0 0.0 0.00 0.00 0.00 81 1058.2
20260505060026 8 67 6.4 0.0 0.00 0.00 0.00 81 1058.2
20260505055920 8 90 6.4 0.0 0.00 0.00 0.00 81 1058.1
20260505055801 8 67 3.2 0.0 0.00 0.00 0.00 81 1058.1
20260505055654 8 90 8.0 0.0 0.00 0.00 0.00 81 1058.0
20260505055542 8 45 19.3 0.0 0.00 0.00 0.00 81 1058.0
20260505055435 8 45 3.2 0.0 0.00 0.00 0.00 81 1058.2
20260505055314 8 67 6.4 0.0 0.00 0.00 0.00 81 1058.1
20260505055155 8 45 11.3 0.0 0.00 0.00 0.00 81 1058.1
20260505055048 8 67 0.0 0.0 0.00 0.00 0.00 81 1058.1
20260505054922 8 45 6.4 0.0 0.00 0.00 0.00 81 1058.2
20260505054815 8 45 4.8 0.0 0.00 0.00 0.00 81 1058.4
20260505054419 8 67 8.0 0.0 0.00 0.00 0.00 81 1058.3
20260505054313 8 45 0.0 0.0 0.00 0.00 0.00 81 1058.3
20260505054144 8 90 4.8 0.0 0.00 0.00 0.00 81 1058.3
20260505054022 8 45 9.7 0.0 0.00 0.00 0.00 81 1058.3
20260505053902 8 67 8.0 0.0 0.00 0.00 0.00 81 1058.3
20260505053741 8 45 8.0 0.0 0.00 0.00 0.00 81 1058.2
20260505053635 8 45 0.0 0.0 0.00 0.00 0.00 81 1058.3
20260505053505 8 22 9.7 0.0 0.00 0.00 0.00 81 1058.1
20260505053353 8 90 3.2 0.0 0.00 0.00 0.00 81 1058.3
20260505053231 8 112 6.4 0.0 0.00 0.00 0.00 81 1058.2
20260505053102 8 67 3.2 0.0 0.00 0.00 0.00 81 1058.2
20260505052940 8 112 0.0 0.0 0.00 0.00 0.00 81 1058.2
20260505052813 8 45 4.8 0.0 0.00 0.00 0.00 81 1058.2
20260505052658 8 90 3.2 0.0 0.00 0.00 0.00 81 1058.2
20260505052537 8 45 8.0 0.0 0.00 0.00 0.00 81 1058.2
20260505052407 8 45 12.9 0.0 0.00 0.00 0.00 81 1058.3
20260505052238 8 90 6.4 0.0 0.00 0.00 0.00 82 1058.1
20260505052111 8 67 12.9 0.0 0.00 0.00 0.00 82 1058.1
20260505052004 8 45 9.7 0.0 0.00 0.00 0.00 82 1058.1
20260505051851 8 45 6.4 0.0 0.00 0.00 0.00 82 1058.1
20260505051737 8 45 3.2 0.0 0.00 0.00 0.00 82 1058.1
20260505051619 8 45 9.7 0.0 0.00 0.00 0.00 82 1058.1
20260505051512 8 45 6.4 0.0 0.00 0.00 0.00 82 1058.1
20260505051350 8 45 6.4 0.0 0.00 0.00 0.00 82 1058.1
20260505051229 8 90 6.4 0.0 0.00 0.00 0.00 82 1058.1
20260505051116 8 45 3.2 0.0 0.00 0.00 0.00 82 1058.0
20260505051003 8 90 0.0 0.0 0.00 0.00 0.00 82 1058.0
20260505050841 8 22 4.8 0.0 0.00 0.00 0.00 82 1058.1
20260505050722 8 45 3.2 0.0 0.00 0.00 0.00 82 1058.1
20260505050615 8 67 0.0 0.0 0.00 0.00 0.00 82 1058.1
20260505050456 8 67 8.0 0.0 0.00 0.00 0.00 82 1058.1
20260505050351 8 45 8.0 0.0 0.00 0.00 0.00 82 1058.0
20260505050243 8 67 0.0 0.0 0.00 0.00 0.00 82 1058.1
20260505050131 8 90 14.5 0.0 0.00 0.00 0.00 82 1058.1
20260505041730 8 22 6.4 0.0 0.00 0.00 0.00 83 1057.9
20260505041608 8 45 11.3 0.0 0.00 0.00 0.00 83 1057.9
20260505041455 8 22 9.7 0.0 0.00 0.00 0.00 83 1058.0
20260505041341 8 67 9.7 0.0 0.00 0.00 0.00 83 1057.9
20260505041213 8 45 8.0 0.0 0.00 0.00 0.00 83 1057.8
20260505041044 8 45 6.4 0.0 0.00 0.00 0.00 83 1057.8
20260505040930 8 45 3.2 0.0 0.00 0.00 0.00 83 1057.9
20260505040812 8 22 9.7 0.0 0.00 0.00 0.00 83 1057.9
20260505040656 8 45 3.2 0.0 0.00 0.00 0.00 83 1057.8
20260505040543 8 22 6.4 0.0 0.00 0.00 0.00 83 1057.9
20260505040431 8 0 3.2 0.0 0.00 0.00 0.00 83 1057.8
20260505040324 8 0 6.4 0.0 0.00 0.00 0.00 83 1057.8
20260505040211 8 45 11.3 0.0 0.00 0.00 0.00 83 1057.8
20260505040051 8 0 11.3 0.0 0.00 0.00 0.00 83 1057.8
20260505035945 8 0 4.8 0.0 0.00 0.00 0.00 83 1057.8
20260505035832 8 45 6.4 0.0 0.00 0.00 0.00 83 1057.7
20260505035710 8 67 0.0 0.0 0.00 0.00 0.00 83 1057.8
20260505035558 8 22 8.0 0.0 0.00 0.00 0.00 83 1057.8
20260505035436 8 22 8.0 0.0 0.00 0.00 0.00 83 1057.9
20260505035316 8 0 6.4 0.0 0.00 0.00 0.00 83 1057.8
20260505035202 8 45 9.7 0.0 0.00 0.00 0.00 83 1057.8
20260505035042 8 22 9.7 0.0 0.00 0.00 0.00 83 1057.8
20260505034929 8 22 4.8 0.0 0.00 0.00 0.00 83 1057.9
20260505034824 8 45 8.0 0.0 0.00 0.00 0.00 83 1057.9
20260505034711 8 45 3.2 0.0 0.00 0.00 0.00 83 1057.8
20260505034606 8 22 9.7 0.0 0.00 0.00 0.00 83 1057.9
20260505034454 8 0 6.4 0.0 0.00 0.00 0.00 83 1057.8
20260505034338 8 45 9.7 0.0 0.00 0.00 0.00 83 1057.8
20260505034226 8 90 8.0 0.0 0.00 0.00 0.00 83 1057.9
20260505034104 8 90 16.1 0.0 0.00 0.00 0.00 83 1057.8
20260505033951 8 22 9.7 0.0 0.00 0.00 0.00 83 1057.8
20260505033832 8 22 8.0 0.0 0.00 0.00 0.00 83 1057.9
20260505033724 8 22 16.1 0.0 0.00 0.00 0.00 83 1057.9
20260505033605 8 0 0.0 0.0 0.00 0.00 0.00 83 1057.9
20260505033458 8 45 11.3 0.0 0.00 0.00 0.00 83 1057.8
20260505033344 8 0 3.2 0.0 0.00 0.00 0.00 83 1057.9
20260505033216 8 22 4.8 0.0 0.00 0.00 0.00 83 1057.8
20260505033103 8 67 11.3 0.0 0.00 0.00 0.00 83 1057.8
20260505032949 8 45 9.7 0.0 0.00 0.00 0.00 83 1057.9
20260505032838 8 0 11.3 0.0 0.00 0.00 0.00 83 1057.9
20260505032731 8 67 8.0 0.0 0.00 0.00 0.00 83 1058.0
20260505032618 8 45 6.4 0.0 0.00 0.00 0.00 84 1057.9
20260505032512 8 22 3.2 0.0 0.00 0.00 0.00 84 1058.0
20260505032359 8 22 12.9 0.0 0.00 0.00 0.00 84 1057.9
20260505032238 8 22 9.7 0.0 0.00 0.00 0.00 84 1058.0
20260505032133 8 22 9.7 0.0 0.00 0.00 0.00 84 1058.0
20260505032020 8 45 8.0 0.0 0.00 0.00 0.00 84 1058.0
20260505031858 8 67 11.3 0.0 0.00 0.00 0.00 84 1057.9
20260505031740 8 67 11.3 0.0 0.00 0.00 0.00 84 1058.0
20260505031632 8 22 9.7 0.0 0.00 0.00 0.00 84 1058.0
20260505031510 8 67 11.3 0.0 0.00 0.00 0.00 84 1058.0
20260505031352 8 22 8.0 0.0 0.00 0.00 0.00 84 1058.1
20260505031245 8 45 4.8 0.0 0.00 0.00 0.00 84 1058.0
20260505031131 8 22 6.4 0.0 0.00 0.00 0.00 84 1058.1
20260505031010 8 22 11.3 0.0 0.00 0.00 0.00 84 1058.0
20260505030849 8 22 0.0 0.0 0.00 0.00 0.00 84 1058.2
20260505030744 8 45 1.6 0.0 0.00 0.00 0.00 84 1058.1
20260505030631 8 22 4.8 0.0 0.00 0.00 0.00 83 1058.1
20260505030509 8 0 6.4 0.0 0.00 0.00 0.00 84 1058.2
20260505030356 8 67 8.0 0.0 0.00 0.00 0.00 84 1058.1
20260505030244 8 22 4.8 0.0 0.00 0.00 0.00 83 1058.2
20260505030136 8 22 8.0 0.0 0.00 0.00 0.00 84 1058.1
20260505030017 8 22 6.4 0.0 0.00 0.00 0.00 84 1058.1
20260505025908 8 22 8.0 0.0 0.00 0.00 0.00 84 1058.1
20260505025754 8 0 6.4 0.0 0.00 0.00 0.00 84 1058.2
20260505025648 8 22 8.0 0.0 0.00 0.00 0.00 84 1058.1
20260505025525 8 45 6.4 0.0 0.00 0.00 0.00 84 1058.1
20260505025411 8 0 4.8 0.0 0.00 0.00 0.00 84 1058.1
20260505025257 8 22 8.0 0.0 0.00 0.00 0.00 84 1058.0
20260505025154 8 0 6.4 0.0 0.00 0.00 0.00 84 1058.0
20260505025047 8 45 6.4 0.0 0.00 0.00 0.00 84 1058.1
20260505024933 8 0 9.7 0.0 0.00 0.00 0.00 84 1058.0
20260505024811 8 22 9.7 0.0 0.00 0.00 0.00 84 1058.1
20260505024642 8 0 6.4 0.0 0.00 0.00 0.00 84 1058.1
20260505024527 8 22 6.4 0.0 0.00 0.00 0.00 84 1058.1
20260505024414 8 22 3.2 0.0 0.00 0.00 0.00 84 1058.2
20260505024253 8 22 12.9 0.0 0.00 0.00 0.00 84 1058.1
20260505024141 8 0 4.8 0.0 0.00 0.00 0.00 84 1058.1
20260505024034 8 45 9.7 0.0 0.00 0.00 0.00 84 1058.1
20260505023920 8 22 9.7 0.0 0.00 0.00 0.00 84 1058.2
20260505023754 8 0 3.2 0.0 0.00 0.00 0.00 84 1058.3
20260505023638 8 45 11.3 0.0 0.00 0.00 0.00 84 1058.2
20260505023526 8 22 9.7 0.0 0.00 0.00 0.00 84 1058.2
20260505023414 8 45 9.7 0.0 0.00 0.00 0.00 84 1058.2
20260505023301 8 45 3.2 0.0 0.00 0.00 0.00 84 1058.2
20260505023154 8 22 0.0 0.0 0.00 0.00 0.00 84 1058.2
20260505023041 8 22 6.4 0.0 0.00 0.00 0.00 84 1058.3
20260505022921 8 22 9.7 0.0 0.00 0.00 0.00 84 1058.3
20260505022814 8 22 9.7 0.0 0.00 0.00 0.00 84 1058.2
20260505022653 8 22 6.4 0.0 0.00 0.00 0.00 84 1058.3
20260505022532 8 22 9.7 0.0 0.00 0.00 0.00 84 1058.2
20260505022411 8 45 11.3 0.0 0.00 0.00 0.00 84 1058.2
20260505022306 8 22 14.5 0.0 0.00 0.00 0.00 84 1058.3
20260505022154 8 45 4.8 0.0 0.00 0.00 0.00 84 1058.3
20260505022050 8 0 6.4 0.0 0.00 0.00 0.00 84 1058.3
20260505021941 8 0 4.8 0.0 0.00 0.00 0.00 84 1058.2
20260505021822 8 22 3.2 0.0 0.00 0.00 0.00 84 1058.2
20260505021708 8 22 6.4 0.0 0.00 0.00 0.00 84 1058.3
20260505021549 8 22 0.0 0.0 0.00 0.00 0.00 84 1058.3
20260505021436 8 22 4.8 0.0 0.00 0.00 0.00 84 1058.3
20260505021331 8 22 3.2 0.0 0.00 0.00 0.00 84 1058.2
20260505021224 8 45 6.4 0.0 0.00 0.00 0.00 84 1058.4
20260505021110 8 22 9.7 0.0 0.00 0.00 0.00 84 1058.3
20260505020943 8 22 11.3 0.0 0.00 0.00 0.00 84 1058.4
20260505020837 8 22 4.8 0.0 0.00 0.00 0.00 84 1058.4
20260505020724 8 22 0.0 0.0 0.00 0.00 0.00 84 1058.3
20260505020602 8 0 3.2 0.0 0.00 0.00 0.00 84 1058.3
20260505020442 8 22 4.8 0.0 0.00 0.00 0.00 84 1058.3
20260505020337 8 0 0.0 0.0 0.00 0.00 0.00 84 1058.3
20260505020232 8 45 3.2 0.0 0.00 0.00 0.00 84 1058.4
20260505020126 8 0 6.4 0.0 0.00 0.00 0.00 84 1058.4
20260505020012 8 0 6.4 0.0 0.00 0.00 0.00 84 1058.4
20260505015900 8 0 11.3 0.0 0.00 0.00 0.00 84 1058.5
20260505015746 8 22 6.4 0.0 0.00 0.00 0.00 84 1058.4
20260505015632 8 22 11.3 0.0 0.00 0.00 0.00 84 1058.5
20260505015512 8 22 11.3 0.0 0.00 0.00 0.00 84 1058.4
20260505015352 8 22 8.0 0.0 0.00 0.00 0.00 84 1058.4
20260505015246 8 0 6.4 0.0 0.00 0.00 0.00 84 1058.4
20260505015141 8 22 9.7 0.0 0.00 0.00 0.00 84 1058.4
20260505015027 8 67 12.9 0.0 0.00 0.00 0.00 84 1058.5
20260505014900 8 0 4.8 0.0 0.00 0.00 0.00 84 1058.4
20260505014754 8 22 9.7 0.0 0.00 0.00 0.00 84 1058.4
20260505014649 8 0 4.8 0.0 0.00 0.00 0.00 84 1058.4
20260505014535 8 45 9.7 0.0 0.00 0.00 0.00 84 1058.4
20260505014415 8 22 16.1 0.0 0.00 0.00 0.00 84 1058.4
20260505014301 8 337 6.4 0.0 0.00 0.00 0.00 84 1058.4
20260505014139 8 0 8.0 0.0 0.00 0.00 0.00 84 1058.4
20260505014029 8 22 8.0 0.0 0.00 0.00 0.00 84 1058.5
20260505013924 8 337 9.7 0.0 0.00 0.00 0.00 84 1058.5
20260505013819 8 0 3.2 0.0 0.00 0.00 0.00 84 1058.5
20260505013712 8 0 3.2 0.0 0.00 0.00 0.00 84 1058.4
20260505013558 8 45 11.3 0.0 0.00 0.00 0.00 84 1058.5
20260505013437 8 22 4.8 0.0 0.00 0.00 0.00 84 1058.4
20260505013315 8 0 6.4 0.0 0.00 0.00 0.00 84 1058.6
20260505013138 8 337 4.8 0.0 0.00 0.00 0.00 84 1058.5
20260505012903 8 0 4.8 0.0 0.00 0.00 0.00 84 1058.5
20260505012751 8 0 1.6 0.0 0.00 0.00 0.00 84 1058.6
20260505012517 8 0 4.8 0.0 0.00 0.00 0.00 84 1058.5
20260505012414 8 0 0.0 0.0 0.00 0.00 0.00 84 1058.5
20260505012306 8 0 4.8 0.0 0.00 0.00 0.00 84 1058.6
20260505012155 8 0 9.7 0.0 0.00 0.00 0.00 84 1058.6
20260505012048 8 337 9.7 0.0 0.00 0.00 0.00 84 1058.6
20260505011919 8 22 4.8 0.0 0.00 0.00 0.00 84 1058.6
20260505011805 8 45 6.4 0.0 0.00 0.00 0.00 84 1058.6
20260505011652 8 0 8.0 0.0 0.00 0.00 0.00 84 1058.7
20260505011533 8 22 0.0 0.0 0.00 0.00 0.00 84 1058.7
20260505011424 8 22 0.0 0.0 0.00 0.00 0.00 84 1058.6
20260505011310 8 22 0.0 0.0 0.00 0.00 0.00 84 1058.7
20260505011147 8 45 6.4 0.0 0.00 0.00 0.00 84 1058.6
20260505011035 8 22 4.8 0.0 0.00 0.00 0.00 84 1058.6
20260505010927 8 0 4.8 0.0 0.00 0.00 0.00 84 1058.6
20260505010812 8 0 8.0 0.0 0.00 0.00 0.00 84 1058.6
20260505010652 8 22 4.8 0.0 0.00 0.00 0.00 84 1058.6
20260505010536 8 22 9.7 0.0 0.00 0.00 0.00 84 1058.7
20260505010422 8 0 4.8 0.0 0.00 0.00 0.00 84 1058.7
20260505010306 8 22 4.8 0.0 0.00 0.00 0.00 84 1058.6
20260505005925 8 22 11.3 0.0 0.00 0.00 0.00 84 1058.7
20260505005811 8 22 3.2 0.0 0.00 0.00 0.00 84 1058.7
20260505005648 8 0 6.4 0.0 0.00 0.00 0.00 84 1058.7
20260505005535 8 0 3.2 0.0 0.00 0.00 0.00 84 1058.7
20260505005430 8 22 3.2 0.0 0.00 0.00 0.00 84 1058.8
20260505005323 8 22 0.0 0.0 0.00 0.00 0.00 84 1058.8
20260505005218 8 45 0.0 0.0 0.00 0.00 0.00 84 1058.8
20260505005111 8 0 3.2 0.0 0.00 0.00 0.00 84 1058.8
20260505005005 8 0 9.7 0.0 0.00 0.00 0.00 84 1058.8
20260505004851 8 0 6.4 0.0 0.00 0.00 0.00 84 1058.8
20260505004728 8 22 9.7 0.0 0.00 0.00 0.00 84 1058.8
20260505004614 8 22 4.8 0.0 0.00 0.00 0.00 84 1058.8
20260505004453 8 22 6.4 0.0 0.00 0.00 0.00 84 1058.9
20260505004339 8 0 3.2 0.0 0.00 0.00 0.00 84 1058.8
20260505004224 8 0 6.4 0.0 0.00 0.00 0.00 84 1058.8
20260505004104 8 45 9.7 0.0 0.00 0.00 0.00 84 1058.8
20260505003951 8 0 0.0 0.0 0.00 0.00 0.00 84 1058.8
20260505003843 8 0 12.9 0.0 0.00 0.00 0.00 84 1058.8
20260505003729 8 22 4.8 0.0 0.00 0.00 0.00 84 1058.9
20260505003624 8 22 4.8 0.0 0.00 0.00 0.00 84 1058.9
20260505003517 8 0 0.0 0.0 0.00 0.00 0.00 84 1058.9
20260505003406 8 0 0.0 0.0 0.00 0.00 0.00 84 1058.8
20260505003257 8 0 0.0 0.0 0.00 0.00 0.00 84 1058.8
20260505003143 8 22 3.2 0.0 0.00 0.00 0.00 84 1058.8
20260505003031 8 0 9.7 0.0 0.00 0.00 0.00 84 1058.8
20260505002923 8 22 9.7 0.0 0.00 0.00 0.00 84 1058.8
20260505002809 8 22 3.2 0.0 0.00 0.00 0.00 84 1058.8
20260505002703 8 22 0.0 0.0 0.00 0.00 0.00 84 1058.8
20260505002557 8 45 9.7 0.0 0.00 0.00 0.00 84 1058.7
20260505002450 8 45 6.4 0.0 0.00 0.00 0.00 84 1058.8